This is the latest recevied weather packets stored in our database for station/object KE8KMM. If no packets are shown the sender has not sent any weather packets the latest 10 day(s).
| Time | Temp. | Humidity | Pressure | Rain* | Wind** | Luminosity | Snow |
|---|---|---|---|---|---|---|---|
| 1777952580 | 17.78° C | 74% | 1005.3 hPa | 0 mm | - | 0 W/m² | - |
| 1777952276 | 18.33° C | 71% | 1005.2 hPa | 0 mm | - | 0 W/m² | - |
| 1777951974 | 18.33° C | 72% | 1005.3 hPa | 0 mm | - | 0 W/m² | - |
| 1777951672 | 18.33° C | 72% | 1005.3 hPa | 0 mm | - | 0 W/m² | - |
| 1777951367 | 18.33° C | 72% | 1005.3 hPa | 0 mm | - | 0 W/m² | - |
| 1777951065 | 18.33° C | 72% | 1005.2 hPa | 0 mm | - | 0 W/m² | - |
| 1777950761 | 18.33° C | 71% | 1005.3 hPa | 0 mm | - | 0 W/m² | - |
| 1777950458 | 18.33° C | 71% | 1005.2 hPa | 0 mm | - | 0 W/m² | - |
| 1777950154 | 17.78° C | 72% | 1005.3 hPa | 0 mm | - | 0 W/m² | - |
| 1777949850 | 17.78° C | 73% | 1005.2 hPa | 0 mm | - | 0 W/m² | - |
| 1777949549 | 18.33° C | 71% | 1005.3 hPa | 0 mm | - | 0 W/m² | - |
| 1777949246 | 17.78° C | 72% | 1005.2 hPa | 0 mm | - | 0 W/m² | - |
| 1777948943 | 17.78° C | 71% | 1005.1 hPa | 0 mm | - | 0 W/m² | - |
| 1777948641 | 17.78° C | 72% | 1005.2 hPa | 0 mm | - | 0 W/m² | - |
| 1777948338 | 17.78° C | 71% | 1005.1 hPa | 0 mm | - | 0 W/m² | - |
| 1777948035 | 17.78° C | 71% | 1005.4 hPa | 0 mm | - | 0 W/m² | - |
| 1777947732 | 17.78° C | 72% | 1005.4 hPa | 0 mm | - | 0 W/m² | - |
| 1777947429 | 17.22° C | 73% | 1005.2 hPa | 0 mm | - | 0 W/m² | - |
| 1777947126 | 17.78° C | 72% | 1005.2 hPa | 0 mm | - | 0 W/m² | - |
| 1777946821 | 17.22° C | 75% | 1005.4 hPa | 0 mm | - | 0 W/m² | - |
| 1777946517 | 17.22° C | 71% | 1005.1 hPa | 0 mm | - | 0 W/m² | - |
| 1777946215 | 17.78° C | 71% | 1005.3 hPa | 0 mm | - | 0 W/m² | - |
| 1777945911 | 17.78° C | 74% | 1005.1 hPa | 0 mm | - | 0 W/m² | - |
| 1777945608 | 17.78° C | 71% | 1005.1 hPa | 0 mm | - | 0 W/m² | - |
| 1777945305 | 17.78° C | 71% | 1005.2 hPa | 0 mm | - | 0 W/m² | - |
* Rain latest hour (hover to see other rain measurements)
** Current wind speed in m/s (hover to see current wind gust speed)